Wind_Speed
51 51 51 51 52 53 53 54 54 54 53 53 54 54 55 55 55 54 54 54 54 54 54 53 53 53 53 53 52 52 52 52 52 53 53 53 53 53
49 50 51 51 51 51 52 52 53 53 51 50 52 53 54 54 54 54 54 54 55 55 54 54 53 53 53 52 52 52 51 51 51 52 52 52 51 51
48 49 49 50 50 50 51 51 51 51 51 49 49 50 50 51 52 53 54 54 54 54 54 53 53 53 53 53 52 52 51 51 50 50 50 50 49 50
47 47 47 48 48 48 49 50 50 50 49 48 47 48 49 50 51 51 52 52 52 51 52 52 52 52 52 52 52 51 51 50 50 49 48 48 49 49
45 46 46 46 46 46 47 47 48 48 49 48 48 48 48 48 49 49 49 49 49 49 49 50 50 50 50 49 49 49 49 48 48 47 46 47 47 47
44 44 45 44 45 45 46 46 46 47 47 48 47 47 46 46 46 45 45 45 46 46 47 47 47 47 47 46 46 46 46 46 46 45 44 44 44 45
42 43 43 44 44 44 45 45 46 46 46 46 46 45 45 45 44 44 43 43 44 44 44 44 44 43 43 43 43 43 43 43 43 43 43 43 42 42
40 41 42 42 42 43 44 44 44 44 44 44 44 44 44 44 44 44 43 42 41 41 42 41 41 41 40 41 41 40 40 40 40 40 41 41 40 40
39 39 39 39 40 40 41 41 41 42 42 42 42 42 42 42 42 42 42 41 40 40 39 38 38 38 38 38 38 38 38 38 38 38 38 38 38 38
36 37 37 37 37 38 38 38 38 39 40 40 40 39 40 41 41 41 40 39 39 38 38 37 36 36 35 36 35 35 35 35 34 34 35 35 35 35
34 35 35 36 36 36 36 36 36 37 37 37 37 37 38 38 38 38 38 37 37 36 37 36 35 34 34 34 33 33 32 31 31 31 32 31 32 32
32 33 33 33 33 34 34 34 34 34 35 35 36 37 37 37 36 36 36 36 35 34 34 34 33 33 32 32 31 30 29 29 29 29 30 30 30 30
31 31 30 31 31 32 32 32 32 33 33 34 34 34 34 34 33 33 33 33 32 32 32 32 31 31 30 29 29 29 28 27 27 28 28 27 27 28
30 29 30 30 31 32 31 31 32 32 32 32 32 31 30 30 30 29 29 29 29 29 29 29 28 28 27 27 26 27 27 26 26 26 26 26 26 26
29 29 29 30 31 30 30 30 30 30 29 29 28 28 27 27 27 27 26 26 25 25 26 26 26 25 25 24 24 24 25 25 26 25 25 24 24 24
28 28 28 28 28 28 28 28 27 27 27 26 25 24 24 23 23 23 23 23 23 23 23 23 22 22 22 22 22 23 23 23 23 24 23 22 22 21
26 26 25 25 25 25 25 25 25 24 24 23 22 21 21 21 20 20 20 20 20 20 20 20 20 20 20 20 20 20 20 20 20 20 20 20 20 18
23 22 22 22 22 22 22 22 22 22 21 20 20 19 18 18 18 18 18 18 18 18 17 17 18 18 18 18 18 17 18 18 17 17 17 17 17 18
21 21 20 20 20 20 20 20 20 19 19 18 18 18 17 17 16 16 16 16 15 15 14 14 15 16 16 15 15 15 15 15 15 15 14 14 14 14
19 19 18 18 19 19 18 18 17 17 17 16 16 15 15 14 14 13 13 13 13 13 13 13 13 14 14 13 13 14 15 15 14 14 14 13 12 12
18 17 17 17 17 17 16 16 15 15 15 14 14 13 13 12 12 12 12 12 12 11 11 11 11 12 12 12 12 12 13 13 13 12 12 11 11 11
16 16 16 16 16 15 15 15 15 14 13 13 13 12 11 11 11 11 12 11 10 10 9 9 10 10 10 10 10 10 10 10 11 11 10 10 10 10
15 15 15 15 15 14 14 14 13 13 13 13 12 11 11 11 11 11 10 10 9 9 9 8 8 8 8 7 7 7 7 7 8 9 9 9 9 9
Wind_Direction
276 276 276 277 276 276 276 275 275 274 273 274 274 274 275 275 275 274 275 275 274 274 274 274 274 273 274 274 274 274 274 273 273 273 273 272 273 273
277 277 277 277 277 277 277 277 277 276 276 275 275 275 275 275 275 274 274 275 275 275 275 274 274 274 274 274 274 274 274 274 274 274 273 273 272 272
278 278 277 277 277 277 277 278 278 278 277 276 277 277 277 276 275 275 275 276 276 275 275 274 274 274 274 274 273 273 273 274 274 274 273 273 272 272
279 278 278 278 278 278 278 279 279 278 278 278 277 277 277 277 277 277 277 277 276 275 275 274 274 274 274 273 273 273 273 273 273 273 273 273 273 272
279 279 279 278 278 279 280 280 279 279 278 278 278 278 278 278 278 278 277 277 277 276 275 275 275 275 274 274 273 272 272 272 272 272 271 272 272 272
280 279 279 279 279 280 281 281 281 280 279 278 279 278 278 278 279 278 278 277 277 277 277 277 276 275 274 273 272 272 272 272 272 271 271 271 271 272
280 280 281 281 281 281 281 281 281 280 279 279 279 279 279 278 278 278 278 278 278 279 278 278 277 276 275 273 272 272 272 272 271 271 271 271 271 272
282 282 282 281 282 283 283 283 283 282 281 281 281 280 279 278 278 278 278 278 278 278 278 277 277 277 275 275 274 274 273 272 271 270 270 270 270 271
284 284 284 283 283 284 286 285 284 283 283 283 282 281 279 278 278 278 278 279 278 278 277 277 277 277 276 275 276 275 274 272 271 270 270 270 270 271
285 285 285 286 286 286 286 286 285 285 284 283 283 282 281 280 279 279 278 278 278 277 277 277 276 276 276 276 276 275 275 273 272 271 271 271 269 269
286 287 287 287 286 286 286 286 287 286 286 285 284 284 284 283 281 280 278 277 276 276 276 277 275 275 276 276 275 274 274 273 272 271 271 272 269 269
287 288 288 288 288 288 288 288 288 287 287 287 286 285 285 285 283 281 279 277 276 276 276 276 276 274 274 275 275 274 273 271 271 271 270 271 270 269
290 291 291 291 291 291 290 290 291 291 290 289 288 287 286 284 283 283 281 278 277 277 277 276 275 275 274 274 274 272 271 270 270 271 270 270 270 268
291 291 292 292 292 292 292 292 293 294 294 292 290 288 287 285 284 284 282 280 279 278 277 276 275 275 274 273 272 270 269 269 269 269 270 270 269 267
292 292 292 293 294 294 293 294 295 295 296 295 292 289 288 286 285 284 283 280 279 279 278 276 275 274 273 273 272 269 267 267 268 269 270 269 267 265
293 293 293 294 294 294 294 295 296 296 297 298 296 293 290 288 287 286 284 281 279 279 279 277 275 273 273 273 271 269 267 267 267 267 267 266 265 265
296 295 295 295 296 296 296 296 297 297 296 298 298 296 294 292 290 288 287 284 282 280 280 278 277 276 275 274 271 268 266 266 266 265 265 264 263 265
301 299 298 298 299 300 299 299 299 298 297 297 296 297 296 295 293 292 290 289 286 284 282 280 278 278 277 275 272 269 266 265 265 267 266 263 262 262
304 304 302 302 303 305 305 304 303 301 299 299 298 297 297 297 297 296 295 294 291 286 284 283 281 278 276 275 272 270 269 269 268 267 265 262 260 258
308 309 308 307 306 307 309 309 307 305 305 304 301 299 298 298 298 298 300 299 294 289 287 285 283 280 278 277 274 273 271 269 267 266 264 262 260 256
311 313 312 312 311 310 310 311 312 311 309 308 306 302 299 299 297 298 300 301 297 293 289 288 288 286 282 280 280 277 274 270 266 263 258 256 254 255
314 316 317 315 314 313 314 314 315 315 314 315 312 308 303 300 298 298 300 302 302 300 297 296 296 293 288 286 286 281 275 267 261 257 253 249 252 257
317 318 321 320 319 318 318 317 317 316 316 316 314 313 309 306 304 302 302 304 304 301 301 301 302 300 297 295 291 286 276 260 250 250 249 247 251 256
Height
5629 5628 5626 5625 5623 5622 5621 5620 5620 5620 5622 5620 5617 5615 5613 5612 5611 5610 5609 5609 5608 5608 5607 5607 5606 5606 5605 5605 5604 5604 5603 5603 5603 5602 5602 5602 5602 5601
5616 5614 5613 5611 5610 5608 5607 5605 5604 5604 5605 5606 5602 5600 5598 5597 5595 5594 5593 5593 5592 5592 5592 5591 5591 5590 5590 5590 5589 5589 5588 5588 5588 5587 5587 5587 5587 5586
5603 5601 5599 5597 5596 5594 5593 5591 5590 5589 5590 5591 5588 5586 5584 5582 5580 5579 5578 5578 5577 5576 5575 5575 5575 5575 5575 5575 5574 5574 5574 5574 5573 5573 5573 5572 5572 5572
5590 5588 5586 5584 5582 5581 5579 5578 5576 5575 5575 5575 5574 5572 5570 5568 5566 5564 5563 5562 5562 5561 5560 5560 5560 5560 5560 5560 5559 5559 5559 5559 5559 5559 5559 5559 5558 5558
5577 5575 5573 5571 5570 5568 5566 5564 5563 5562 5560 5560 5560 5558 5556 5554 5553 5551 5550 5548 5547 5546 5545 5545 5544 5544 5544 5544 5544 5545 5545 5545 5545 5545 5544 5544 5544 5544
5565 5563 5561 5559 5558 5555 5554 5552 5550 5549 5547 5546 5546 5545 5543 5541 5539 5538 5537 5535 5534 5533 5531 5531 5530 5530 5530 5530 5531 5531 5531 5531 5531 5531 5531 5531 5531 5530
5553 5551 5549 5547 5545 5543 5541 5539 5537 5536 5534 5533 5533 5531 5530 5528 5527 5525 5525 5524 5522 5520 5519 5518 5517 5517 5517 5517 5517 5517 5518 5518 5518 5518 5518 5518 5518 5518
5542 5540 5537 5535 5533 5531 5529 5527 5525 5523 5522 5521 5520 5519 5517 5515 5514 5513 5512 5512 5511 5510 5508 5507 5506 5505 5505 5505 5505 5505 5505 5505 5506 5506 5506 5506 5506 5506
5531 5528 5526 5524 5522 5520 5517 5515 5513 5511 5510 5509 5508 5506 5505 5503 5502 5501 5499 5498 5498 5497 5496 5496 5495 5494 5494 5493 5494 5494 5494 5494 5494 5494 5495 5495 5495 5495
5520 5518 5516 5514 5511 5509 5507 5505 5502 5500 5498 5497 5496 5494 5492 5490 5489 5489 5487 5487 5487 5485 5484 5485 5485 5484 5483 5483 5483 5483 5483 5483 5484 5484 5484 5485 5485 5485
5511 5508 5506 5504 5501 5499 5497 5495 5493 5491 5488 5486 5484 5482 5480 5479 5477 5477 5476 5476 5476 5475 5474 5474 5474 5474 5474 5473 5473 5472 5473 5474 5474 5475 5475 5475 5476 5476
5502 5500 5497 5494 5492 5489 5488 5486 5484 5481 5479 5476 5474 5472 5470 5468 5467 5466 5465 5465 5465 5465 5464 5464 5464 5463 5464 5464 5463 5463 5463 5464 5465 5466 5466 5467 5467 5467
5494 5491 5489 5486 5483 5481 5479 5477 5474 5472 5469 5467 5465 5462 5460 5458 5457 5456 5455 5454 5455 5455 5454 5454 5454 5453 5454 5455 5455 5454 5455 5455 5456 5457 5457 5458 5459 5459
5486 5483 5481 5478 5475 5473 5470 5468 5466 5463 5461 5458 5456 5453 5452 5450 5448 5447 5446 5445 5445 5445 5444 5444 5445 5445 5445 5445 5446 5446 5447 5447 5448 5449 5449 5450 5451 5452
5478 5475 5473 5470 5467 5465 5463 5460 5458 5455 5453 5450 5448 5445 5443 5442 5440 5439 5438 5437 5437 5436 5436 5436 5436 5436 5436 5437 5438 5438 5439 5440 5440 5441 5442 5443 5444 5445
5470 5468 5465 5462 5460 5458 5455 5453 5450 5448 5445 5443 5440 5438 5436 5435 5433 5432 5432 5431 5430 5430 5429 5429 5428 5428 5429 5429 5430 5431 5431 5432 5433 5434 5435 5436 5437 5438
5463 5460 5458 5455 5453 5451 5448 5446 5444 5441 5439 5437 5434 5432 5430 5429 5428 5427 5426 5425 5424 5424 5423 5423 5423 5422 5422 5423 5424 5424 5425 5426 5427 5428 5429 5430 5431 5432
5456 5454 5452 5449 5447 5444 5442 5440 5437 5435 5433 5431 5429 5427 5426 5424 5423 5422 5421 5420 5419 5419 5418 5418 5418 5418 5418 5418 5419 5419 5420 5421 5422 5423 5424 5425 5426 5427
5451 5449 5446 5444 5441 5439 5437 5434 5432 5430 5428 5426 5424 5423 5421 5420 5419 5418 5417 5416 5415 5414 5414 5413 5413 5413 5414 5414 5414 5414 5415 5416 5417 5418 5419 5420 5421 5423
5447 5444 5442 5439 5437 5434 5432 5430 5427 5425 5423 5422 5420 5418 5417 5416 5415 5414 5413 5412 5411 5411 5410 5410 5409 5409 5409 5410 5410 5411 5410 5411 5412 5414 5415 5416 5417 5419
5443 5440 5437 5435 5433 5430 5428 5426 5424 5422 5420 5418 5416 5415 5414 5413 5412 5411 5410 5409 5408 5407 5407 5406 5406 5405 5405 5406 5406 5406 5407 5407 5408 5409 5411 5413 5414 5415
5439 5436 5434 5431 5429 5427 5424 5422 5420 5418 5417 5415 5413 5412 5411 5410 5409 5408 5407 5406 5405 5405 5404 5403 5403 5402 5402 5402 5402 5403 5403 5404 5404 5405 5407 5409 5411 5412
5435 5433 5431 5428 5426 5423 5421 5419 5417 5415 5414 5412 5411 5409 5408 5407 5406 5405 5404 5403 5403 5402 5402 5401 5401 5400 5400 5400 5400 5400 5400 5401 5402 5403 5405 5406 5407 5408